Regional Weather Roundup
Issued by NWS

Home | Current Version | Previous Version | Text Only | Print | Product List | Glossary Off
Versions: 1 2 3 4 5 6 7 8 9 10 11 12 13 14 15 16 17 18 19 20 21 22 23 24 25 26 27 28 29 30 31 32 33 34 35 36 37 38 39 40 41 42 43 44 45 46 47 48 49 50

000
ASUS45 KCYS 292110
RWRWY

WYOMING REGIONAL WEATHER ROUNDUP
NATIONAL WEATHER SERVICE CHEYENNE WY
300 PM MDT SUN MAY 29 2016

NOTE:  "FAIR" INDICATES FEW OR NO CLOUDS BELOW 12,000 FEET
WITH NO SIGNIFICANT WEATHER AND/OR OBSTRUCTIONS TO VISIBILITY.

WYZ001-292200-
YELLOWSTONE NATIONAL PARK

CITY           SKY/WX    TMP DP  RH WIND       PRES   REMARKS
LK YELLOWSTONE   N/A     58  25  28 MISG      30.21F
W YELLOWSTONE  NOT AVBL

$$
WYZ002>013-054>058-071-098>099-292200-
NORTHERN WYOMING

CITY           SKY/WX    TMP DP  RH WIND       PRES   REMARKS
JACKSON        PTSUNNY   63  34  34 SW8       30.16R
CODY           FAIR      70  37  30 E8G16     30.03F
GREYBULL       FAIR      76  26  15 SE9       29.99F
WORLAND        FAIR      76  30  18 MISG      30.00F
SHERIDAN       FAIR      76  43  30 SE9       30.01F
BUFFALO        LGT RAIN  67  47  48 E6        30.06F
GILLETTE       FAIR      73  40  30 S10       30.04F
HULETT         MOCLDY    72  50  46 E13       30.06S
NEWCASTLE      FAIR      73  37  27 S7G22     30.05F

$$
WYZ014>020-022>026-101>103-292200-
CENTRAL WYOMING

CITY           SKY/WX    TMP DP  RH WIND       PRES   REMARKS
BIG PINEY      PTSUNNY   62  34  35 N24       30.18F
PINEDALE       CLOUDY    59  32  36 N18       30.19F
DUBOIS         MOCLDY    64  25  22 NW17      30.13F
LANDER         PTSUNNY   70  33  25 VRB5      30.05F
RIVERTON       FAIR      72  27  18 MISG      30.08F
CASPER         FAIR      73  31  21 NW12      30.07F
DOUGLAS          N/A    N/A N/A N/A MISG      30.07F

$$
WYZ021-027>030-104>119-292200-
SOUTHERN WYOMING

CITY           SKY/WX    TMP DP  RH WIND       PRES   REMARKS
EVANSTON       FAIR      66  32  28 W12G22    30.17F
KEMMERER         N/A     64  32  29 W7G20     30.19F
FORT BRIDGER   TSTM      52  45  76 S9        30.24R
ROCK SPRINGS   FAIR      68  30  24 NW13      30.17F
DIXON          FAIR      71  34  26 NW8G16    30.19F
RAWLINS        PTSUNNY   68  31  25 W16G26    30.17F
SARATOGA       FAIR      70  32  24 W16G22    30.19S
LARAMIE        FAIR      65  35  33 N12G18    30.20F
CHEYENNE       FAIR      72  36  26 VRB5      30.13F
TORRINGTON     FAIR      77  42  28 S15       30.03F
PINE BLUFFS    FAIR      77  34  20 S6        30.10F

$$



USA.gov is the U.S. government's official web portal to all federal, state and local government web resources and services.